Location: Clyde
(45.1830°S, 169.3170°E)
Time: 05:55:03
(UTC+12:00)

Cosmos 1633 - Pass Details

Date: 14 May 2021
Orbit: 460 x 478 km, 82.5° (Epoch: 19 June)

Event Time Altitude Azimuth Distance (km) Brightness Sun altitude
Rises 19:08:38 0° 0° (N) 2,493 6.3 -18.3°
Reaches altitude 10° 19:10:42 10° 3° (N) 1,629 5.3 -18.6°
Maximum altitude 19:14:13 63° 84° (E) 537 2.4 -19.2°
Enters shadow 19:14:24 62° 103° (ESE) 543 2.4 -19.3°
